Location: *
(43.9905°S, 176.4941°W)
Time: 12:46:32
(UTC+00:00)

Cosmos 858 Rocket - Pass Details

Date: 08 December 2019
Orbit: 755 x 776 km, 74.1° (Epoch: 19 January)

Event Time Altitude Azimuth Distance (km) Brightness Sun altitude
Rises 10:31:40 0° 203° (SSW) 3,263 9.3 -21.6°
Reaches altitude 10° 10:34:04 10° 204° (SSW) 2,327 8.1 -21.7°
Maximum altitude 10:39:20 75° 287° (WNW) 799 4.5 -22.0°
Enters shadow 10:40:36 52° 357° (N) 953 4.6 -22.0°
